sat.trackr.live / text

‹ back to catalog

STARLINK-3090

NORAD 49132 · 2021-082C

PAYLOAD ACTIVE UNKNOWN

§ Identity

Operator
Country
US
Launch date
2021-09-14
Launch site
AFWTR
Launch vehicle
Mass (kg)
RCS (m²)

Purposes: comms

External: N2YO · Heavens-Above · Gunter

§ Orbital elements

Epoch: 2026-09-12T02:23:12.177600Z

Period
96.11 min
Inclination
70.0000°
Eccentricity
0.0003098
Mean motion
14.98328252 rev/d
Perigee alt
569.9 km
Apogee alt
574.2 km
Semi-major
6,950.2 km
B*
8.3449e-5
RAAN
184.3232°
Arg perigee
269.4824°
Mean anomaly
90.5981°
Rev number
27,390

§ Raw data

STARLINK-30901 49132U 21082C   26255.09944650  .00000903  00000+0  83449-4 0  99922 49132  70.0000 184.3232 0003098 269.4824  90.5981 14.98328252273903

JSON: /api/v1/satellites/49132 · /tle

For live sub-satellite position, see the globe view (requires WebGL).

§ Visibility from observer

Set your observer location to see the next 7 days of passes ≥ 10°. The values pass through the URL so the page stays shareable.

No JS? Fill the form by hand. The geolocation button needs JavaScript.